Regional Weather Roundup
Issued by NWS

Home | Current Version | Previous Version | Text Only | Print | Product List | Glossary On
Versions: 1 2 3 4 5 6 7 8 9 10 11 12 13 14 15 16 17 18 19 20 21 22 23 24 25 26 27 28 29 30 31 32 33 34 35 36 37 38 39 40 41 42 43 44 45 46 47 48 49 50
000
ASUS43 KLMK 271002
RWRKY
KENTUCKY REGIONAL WEATHER ROUNDUP
NATIONAL WEATHER SERVICE LOUISVILLE KY
600 AM EDT WED MAY 27 2015

NOTE "FAIR" INDICATES FEW OR NO CLOUDS BELOW 12,000 FEET
WITH NO SIGNIFICANT WEATHER AND/OR OBSTRUCTIONS TO VISIBILITY.

KYZ001>023-026-027-061>063-070>075-271100-
WESTERN AND SOUTH CENTRAL KENTUCKY

CITY           SKY/WX    TMP DP  RH WIND       PRES   REMARKS
PADUCAH        CLEAR     64  62  93 S3        30.06R
HENDERSON      CLEAR     64  59  82 SW5       30.06R
OWENSBORO      CLEAR     64  63  97 S6        30.08R
HOPKINSVILLE   CLEAR     66  65  96 S5        30.10R
BOWLING GREEN  PTCLDY    67  64  90 S5        30.11S
GLASGOW        NOT AVBL
$$

KYZ024-025-028>034-038-045-046-053-271100-
NORTH CENTRAL KENTUCKY

CITY           SKY/WX    TMP DP  RH WIND       PRES   REMARKS
LOUISVILLE/SDF MOCLDY    68  64  87 S7        30.08R
LOUISVILLE/LOU PTCLDY    67  65  93 S3        30.09R
FORT KNOX      MOCLDY    64  64  98 S5        30.08S
$$

KYZ035>037-039>044-047>052-055>060-089>105-271100-
NORTHEAST KENTUCKY

CITY           SKY/WX    TMP DP  RH WIND       PRES   REMARKS
LEXINGTON      MOCLDY    67  66  97 S6        30.12R
COVINGTON      PTCLDY    65  64  97 S8        30.08R FOG
FRANKFORT      CLOUDY    68  66  93 SW8       30.10R
$$

KYZ054-064>069-076>088-106>120-271100-
SOUTHEAST KENTUCKY

CITY           SKY/WX    TMP DP  RH WIND       PRES   REMARKS
JACKSON        CLOUDY    66  63  90 CALM      30.17R
LONDON         MOCLDY    66  61  84 SW3       30.18R
SOMERSET       NOT AVBL
MIDDLESBORO    CLOUDY    67  63  87 S5        30.20R
MONTICELLO     MOSUNNY   67  67 100 CALM      30.19R
$$



USA.gov is the U.S. government's official web portal to all federal, state and local government web resources and services.